[[{"header":{"parameterUnit":"m.s-1","parameterCategory":1,"la1":30.2991,"la2":30.254,"lo1":-89.0895,"lo2":-89.0444,"dy":0.0017,"dx":0.0017,"nx":28,"ny":28,"refTime":"2025-08-29T09:00:00:Z","depth":0,"parameterNumber":2,"parameterNumberName":"U-component_of_WINDS"},"data":[0,0,0,0,0,0,0,0,0,0,0,0,0,0,0,0,0,0,0,0,0,0,0,0,0,0,0,0,0,0,0,0,0,0,0,0,0,0,0,0,0,0,0,0,0,0,0,0,0,0,0,0,0,0,0,0,0,0,-1.498,-1.498,0,-1.4967,-1.4967,-1.4967,-1.4848,-1.4845,-1.4842,-1.4839,-1.4832,-1.4835,-1.4838,0,0,0,0,0,0,0,0,0,0,0,0,0,-1.4908,-1.4909,-1.498,-1.498,-1.498,-1.4967,-1.4967,-1.4967,-1.4848,-1.4845,-1.4841,-1.4838,-1.4832,-1.4835,-1.4838,0,0,0,0,0,0,0,0,0,0,0,0,0,-1.4922,-1.491,-1.498,-1.4919,-1.4913,-1.4967,-1.4967,-1.4967,-1.4849,-1.4844,-1.484,-1.4836,-1.4831,-1.4834,-1.4838,-1.4952,0,0,-1.485,-1.4852,0,0,0,0,0,0,0,0,-1.4921,-1.4924,-1.4928,-1.4923,-1.4917,-1.4904,-1.4939,-1.4962,-1.485,-1.4874,-1.4839,-1.4834,-1.486,-1.4862,-1.4869,-1.4952,-1.4951,-1.4851,-1.4853,-1.4855,-1.4856,0,0,0,0,0,0,0,-1.492,-1.4924,-1.4975,-1.4929,-1.4922,-1.4894,-1.4891,-1.4943,-1.4893,-1.4871,-1.4863,-1.4862,-1.4857,-1.4866,-1.4868,-1.4951,-1.485,-1.4854,-1.4856,-1.4858,-1.5124,-1.5129,0,0,0,0,0,0,-1.4927,-1.4924,-1.4976,-1.4975,-1.4908,-1.4899,-1.4895,-1.4913,-1.4892,-1.4884,-1.4866,-1.4857,-1.4861,-1.4864,-1.4868,-1.4998,-1.4855,-1.4858,-1.486,-1.512,-1.5126,-1.5131,0,0,0,0,0,0,-1.4926,-1.4933,-1.4976,-1.4947,-1.495,-1.4905,-1.4926,-1.4915,-1.4924,-1.4888,-1.4879,-1.4884,-1.4858,-1.4862,-1.4931,-1.4996,-1.486,-1.4864,-1.5114,-1.5122,-1.5128,-1.5262,0,0,0,0,0,0,-1.4924,-1.4933,-1.4975,-1.4949,-1.4953,-1.5039,-1.493,-1.4918,-1.493,-1.4918,-1.4902,-1.4896,-1.4855,-1.4926,-1.4935,-1.4999,-1.4867,-1.5108,-1.5117,-1.5126,-1.5251,-1.5272,-1.5291,0,0,0,0,0,-1.4922,-1.5015,-1.4978,-1.4985,-1.5004,-1.5043,-1.5045,-1.4994,-1.4936,-1.4978,-1.4954,-1.4896,-1.4987,-1.4934,-1.4943,-1.501,-1.5104,-1.5115,-1.5125,-1.5242,-1.5268,-1.529,0,0,0,0,0,0,-1.5053,-1.5011,-1.4969,-1.5056,-1.5054,-1.5023,-1.5075,-1.5024,-1.504,-1.5028,-1.4966,-1.4964,-1.5042,-1.5032,-1.4974,-1.5118,-1.5035,-1.5048,-1.5121,-1.5146,-1.5165,-1.5166,-1.487,0,0,0,0,0,-1.5092,-1.5125,-1.5087,-1.5168,-1.5168,-1.5122,-1.5137,-1.5098,-1.5094,-1.5093,-1.5074,-1.5075,-1.5103,-1.5124,-1.5148,-1.5248,-1.5243,-1.5299,-1.5318,-1.5335,-1.5347,-1.5399,-1.5423,-1.5166,-1.5166,-1.5165,0,0,-1.5173,-1.5154,-1.518,-1.5193,-1.5187,-1.5225,-1.5122,-1.5167,-1.5195,-1.5101,-1.5164,-1.515,-1.5146,-1.5231,-1.5268,-1.5226,-1.5417,-1.5348,-1.5362,-1.5365,-1.5412,-1.5437,-1.5458,-1.5173,-1.5172,-1.517,0,0,-1.534,-1.5329,-1.5394,-1.5388,-1.5378,-1.5346,-1.5362,-1.5338,-1.5325,-1.5386,-1.5316,-1.5349,-1.5399,-1.5399,-1.5405,-1.5569,-1.5515,-1.5578,-1.5682,-1.5733,-1.5753,-1.5771,-1.5829,-1.585,-1.5591,-1.5591,-1.5591,0,-1.5443,-1.5495,-1.5434,-1.5482,-1.5491,-1.5404,-1.5469,-1.5468,-1.5468,-1.5477,-1.5429,-1.5488,-1.548,-1.5563,-1.5602,-1.561,-1.5627,-1.5581,-1.5754,-1.5772,-1.5787,-1.5842,-1.5864,-1.5599,-1.5598,-1.5597,-1.5596,0,-1.5622,-1.5659,-1.5712,-1.5711,-1.5725,-1.5782,-1.5731,-1.5753,-1.5712,-1.5685,-1.5748,-1.5734,-1.5753,-1.577,-1.5731,-1.5847,-1.5821,-1.5765,-1.5681,-1.5821,-1.5871,-1.5891,-1.561,-1.5607,-1.5605,-1.5603,0,0,-1.5874,-1.5835,-1.5856,-1.5854,-1.5835,-1.5863,-1.5916,-1.5932,-1.5952,-1.5954,-1.5997,-1.604,-1.5987,-1.5994,-1.5954,-1.5999,-1.6128,-1.5937,-1.5936,-1.5973,-1.6255,-1.6298,-1.6323,-1.6092,-1.6096,-1.6099,-1.6255,0,-1.6035,-1.612,-1.6066,-1.6161,-1.6194,-1.6111,-1.6156,-1.6151,-1.6127,-1.6153,-1.6126,-1.6158,-1.6085,-1.6089,-1.6129,-1.6104,-1.6184,-1.6092,-1.6133,-1.6135,-1.6137,-1.6349,-1.6395,-1.6544,-1.6274,-1.6278,-1.628,0,-1.6234,-1.6241,-1.6339,-1.6311,-1.6323,-1.6365,-1.6374,-1.6399,-1.6391,-1.637,-1.6377,-1.6325,-1.6375,-1.6291,-1.636,-1.6299,-1.6312,-1.6302,-1.6307,-1.631,-1.6217,-1.6359,-1.659,-1.6613,-1.6311,-1.6308,-1.6306,0,-1.6409,-1.6443,-1.6505,-1.6505,-1.6475,-1.6506,-1.6495,-1.6482,-1.6494,-1.6502,-1.6509,-1.6525,-1.6534,-1.6547,-1.6501,-1.6444,-1.6576,-1.6489,-1.6562,-1.6563,-1.6595,-1.6594,-1.6832,-1.6602,-1.6602,-1.6602,-1.6601,0,-1.6594,-1.6658,-1.6582,-1.6621,-1.6689,-1.6626,-1.6695,-1.6676,-1.6664,-1.6698,-1.6627,-1.6661,-1.6597,-1.6625,-1.659,-1.6652,-1.6657,-1.6642,-1.6632,-1.6649,-1.6651,-1.6658,-1.6647,-1.6607,-1.6606,-1.6605,-1.6604,0,-1.6802,-1.6754,-1.6816,-1.678,-1.6772,-1.6824,-1.6794,-1.6829,-1.6798,-1.6842,-1.6849,-1.6802,-1.6831,-1.6785,-1.681,-1.6785,-1.6872,-1.6846,-1.6874,-1.6867,-1.6943,-1.6936,-1.7195,-1.7225,-1.6976,-1.6978,-1.698,0,-1.6924,-1.697,-1.6937,-1.6953,-1.6945,-1.6973,-1.6984,-1.6923,-1.6938,-1.6929,-1.6966,-1.6987,-1.7002,-1.7051,-1.7021,-1.7039,-1.7013,-1.7102,-1.7015,-1.703,-1.7014,-1.7012,-1.7016,-1.712,-1.7123,-1.7126,-1.7128,0,-1.7146,-1.7118,-1.7135,-1.7144,-1.7158,-1.7162,-1.7162,-1.718,-1.7115,-1.7135,-1.7161,-1.7172,-1.7195,-1.7218,-1.7227,-1.7217,-1.7163,-1.7155,-1.7173,-1.7191,-1.7205,-1.7198,-1.6924,-1.715,-1.7148,-1.7146,-1.7145,-1.7144,-1.7314,-1.735,-1.7332,-1.7353,-1.7345,-1.7345,-1.7375,-1.7347,-1.7367,-1.7379,-1.7342,-1.7377,-1.7365,-1.7372,-1.7368,-1.7395,-1.7356,-1.7382,-1.7389,-1.7396,-1.7408,-1.72,-1.7397,-1.7396,-1.7395,-1.7395,-1.7394,0,-1.7532,-1.7515,-1.7534,-1.7534,-1.755,-1.7493,-1.7489,-1.7507,-1.7538,-1.753,-1.7545,-1.7575,-1.7596,-1.7565,-1.7581,-1.7609,-1.7584,-1.7615,-1.7613,-1.7612,-1.7442,-1.7425,-1.7635,-1.7635,-1.7635,-1.7635,-1.7635,-1.7635,-1.7647,-1.7705,-1.7675,-1.7728,-1.7711,-1.7743,-1.7745,-1.7745,-1.7738,-1.7774,-1.779,-1.7768,-1.7752,-1.7765,-1.7782,-1.7773,-1.7782,-1.7822,-1.7805,-1.7647,-1.7624,-1.7601,-1.7585,-1.7825,-1.7825,-1.7971,-1.7973,-1.7974]},{"header":{"parameterUnit":"m.s-1","parameterCategory":1,"la1":30.2991,"la2":30.254,"lo1":-89.0895,"lo2":-89.0444,"dy":0.0017,"dx":0.0017,"nx":28,"ny":28,"refTime":"2025-08-29T09:00:00:Z","depth":0,"parameterNumber":3,"parameterNumberName":"V-component_of_WINDS"},"data":[0,0,0,0,0,0,0,0,0,0,0,0,0,0,0,0,0,0,0,0,0,0,0,0,0,0,0,0,0,0,0,0,0,0,0,0,0,0,0,0,0,0,0,0,0,0,0,0,0,0,0,0,0,0,0,0,0,0,-3.8822,-3.8824,0,-3.8985,-3.8987,-3.8989,-3.8982,-3.898,-3.8977,-3.8975,-3.9141,-3.9147,-3.9154,0,0,0,0,0,0,0,0,0,0,0,0,0,-3.8502,-3.8508,-3.8822,-3.8824,-3.8826,-3.8985,-3.8987,-3.8989,-3.8982,-3.8979,-3.8977,-3.8974,-3.9139,-3.9147,-3.9154,0,0,0,0,0,0,0,0,0,0,0,0,0,-3.8651,-3.851,-3.8821,-3.8841,-3.8845,-3.8984,-3.8987,-3.899,-3.8983,-3.8979,-3.8976,-3.8973,-3.9136,-3.9146,-3.9156,-3.9285,0,0,-3.9186,-3.919,0,0,0,0,0,0,0,0,-3.8642,-3.8662,-3.8837,-3.884,-3.8844,-3.896,-3.8935,-3.9089,-3.8984,-3.893,-3.8975,-3.8971,-3.9083,-3.9097,-3.9135,-3.9293,-3.93,-3.9186,-3.9192,-3.9197,-3.9199,0,0,0,0,0,0,0,-3.8632,-3.8655,-3.8886,-3.8839,-3.8844,-3.8842,-3.8859,-3.8964,-3.9024,-3.8935,-3.8935,-3.8954,-3.9085,-3.9126,-3.9139,-3.9303,-3.9186,-3.9195,-3.9201,-3.9205,-3.9574,-3.9577,0,0,0,0,0,0,-3.8617,-3.8647,-3.8881,-3.8891,-3.8733,-3.885,-3.887,-3.8926,-3.9023,-3.9035,-3.8957,-3.8953,-3.9111,-3.9128,-3.9145,-3.9303,-3.9197,-3.9206,-3.9211,-3.957,-3.9575,-3.9579,0,0,0,0,0,0,-3.8611,-3.8638,-3.8875,-3.8769,-3.8799,-3.886,-3.8923,-3.8931,-3.8972,-3.904,-3.905,-3.8988,-3.9109,-3.9131,-3.925,-3.9308,-3.921,-3.9219,-3.9565,-3.9571,-3.9577,-3.9619,0,0,0,0,0,0,-3.8601,-3.8636,-3.8686,-3.877,-3.8805,-3.8978,-3.8927,-3.8937,-3.8989,-3.8986,-3.9072,-3.9083,-3.9108,-3.9236,-3.926,-3.932,-3.9227,-3.956,-3.9568,-3.9575,-3.9613,-3.9626,-3.9637,0,0,0,0,0,-3.859,-3.8692,-3.8689,-3.8717,-3.8869,-3.8981,-3.9001,-3.9028,-3.8994,-3.9045,-3.9088,-3.908,-3.9298,-3.9248,-3.9275,-3.9339,-3.9557,-3.9566,-3.9574,-3.9607,-3.9623,-3.9636,0,0,0,0,0,0,-3.8613,-3.8703,-3.8701,-3.8833,-3.89,-3.898,-3.9045,-3.9044,-3.9121,-3.9115,-3.9145,-3.9164,-3.9283,-3.9323,-3.9266,-3.9469,-3.9423,-3.9438,-3.9439,-3.9454,-3.9466,-3.9454,-3.9235,0,0,0,0,0,-3.8633,-3.8717,-3.8792,-3.8901,-3.8934,-3.8984,-3.9034,-3.9049,-3.9119,-3.9147,-3.9199,-3.9266,-3.935,-3.9404,-3.9485,-3.9619,-3.9637,-3.9676,-3.9688,-3.9697,-3.971,-3.9782,-3.98,-3.9608,-3.9607,-3.9607,0,0,-3.8676,-3.8736,-3.8787,-3.8907,-3.896,-3.9046,-3.9008,-3.91,-3.9164,-3.9161,-3.9276,-3.9317,-3.9394,-3.952,-3.9579,-3.9557,-3.9767,-3.9709,-3.9716,-3.9723,-3.9793,-3.9811,-3.9827,-3.9613,-3.9612,-3.9611,0,0,-3.8799,-3.8853,-3.8949,-3.9003,-3.9084,-3.9117,-3.914,-3.922,-3.9247,-3.9364,-3.9363,-3.9439,-3.9582,-3.9637,-3.9684,-3.9826,-3.9821,-3.9852,-3.9914,-3.9984,-3.9999,-4.0013,-4.0063,-4.0081,-3.9864,-3.9864,-3.9864,0,-3.8842,-3.8971,-3.8999,-3.9092,-3.9144,-3.9146,-3.9243,-3.9294,-3.9397,-3.9433,-3.9408,-3.9588,-3.964,-3.9779,-3.9813,-3.9852,-3.9878,-3.9842,-3.9995,-4.0009,-4.0022,-4.007,-4.0089,-3.9867,-3.9867,-3.9866,-3.9866,0,-3.902,-3.911,-3.9178,-3.9278,-3.9338,-3.9432,-3.9473,-3.9531,-3.9541,-3.9575,-3.9693,-3.9756,-3.9849,-3.9883,-3.9894,-4.0024,-4.0008,-3.9989,-3.9943,-4.0043,-4.0089,-4.0107,-3.9871,-3.987,-3.9869,-3.9869,0,0,-3.9161,-3.9275,-3.9299,-3.9344,-3.9433,-3.9503,-3.9597,-3.9689,-3.9737,-3.9808,-3.9887,-4.0009,-3.9991,-4.0044,-4.0061,-4.0123,-4.023,-4.0096,-4.0098,-4.0118,-4.0376,-4.0389,-4.041,-4.0228,-4.0231,-4.0234,-4.0369,0,-3.9292,-3.946,-3.9487,-3.9634,-3.9717,-3.9719,-3.9801,-3.9865,-3.9899,-3.9974,-4.0012,-4.0097,-4.0068,-4.01,-4.0162,-4.0204,-4.0282,-4.0195,-4.0301,-4.0304,-4.0281,-4.0434,-4.0449,-4.0573,-4.0387,-4.039,-4.0393,0,-3.9467,-3.9543,-3.9698,-3.9775,-3.9811,-3.9885,-3.997,-4.0042,-4.0113,-4.0134,-4.0193,-4.0202,-4.0299,-4.0249,-4.0383,-4.0323,-4.0368,-4.0395,-4.0401,-4.0411,-4.0354,-4.0448,-4.0614,-4.0632,-4.0421,-4.0419,-4.0417,0,-3.9553,-3.9694,-3.9805,-3.9843,-3.9937,-3.9988,-4.0029,-4.0097,-4.015,-4.0225,-4.0259,-4.0344,-4.039,-4.0455,-4.0487,-4.0448,-4.0618,-4.0571,-4.0638,-4.0637,-4.0673,-4.067,-4.0848,-4.0703,-4.0703,-4.0702,-4.0702,0,-3.9696,-3.9791,-3.9845,-3.9913,-4.0019,-4.0049,-4.0153,-4.0193,-4.0253,-4.0329,-4.0336,-4.0406,-4.0444,-4.052,-4.0545,-4.0651,-4.0672,-4.0691,-4.0697,-4.0691,-4.0688,-4.072,-4.0712,-4.0708,-4.0706,-4.0705,-4.0705,0,-3.981,-3.9851,-3.9971,-4.005,-4.0072,-4.0146,-4.0213,-4.0279,-4.0313,-4.0408,-4.0432,-4.0486,-4.0575,-4.0613,-4.0723,-4.074,-4.0862,-4.0861,-4.0838,-4.084,-4.0904,-4.0897,-4.1107,-4.1136,-4.0973,-4.0974,-4.0976,0,-3.9899,-3.9972,-4.0058,-4.0109,-4.0151,-4.0234,-4.0288,-4.032,-4.0376,-4.0462,-4.0517,-4.0607,-4.0681,-4.0823,-4.0872,-4.0956,-4.0957,-4.1025,-4.0969,-4.096,-4.0957,-4.0952,-4.0959,-4.1034,-4.1036,-4.1037,-4.1039,0,-4.0051,-4.0067,-4.0144,-4.0229,-4.0293,-4.0362,-4.0428,-4.0469,-4.0512,-4.0574,-4.0666,-4.0723,-4.0835,-4.0924,-4.101,-4.1052,-4.1052,-4.1056,-4.1075,-4.1069,-4.1052,-4.1062,-4.0865,-4.1051,-4.1049,-4.1048,-4.1048,-4.1047,-4.0154,-4.0219,-4.0289,-4.0375,-4.0429,-4.0491,-4.0556,-4.0598,-4.0676,-4.077,-4.0784,-4.0882,-4.095,-4.1067,-4.1112,-4.1188,-4.1171,-4.12,-4.1207,-4.1214,-4.1217,-4.1041,-4.1204,-4.1204,-4.1204,-4.1204,-4.1203,0,-4.0306,-4.0351,-4.043,-4.0523,-4.0591,-4.0585,-4.0658,-4.0715,-4.0801,-4.0865,-4.0938,-4.1042,-4.1128,-4.1183,-4.127,-4.132,-4.1323,-4.1342,-4.1338,-4.1348,-4.1228,-4.1202,-4.1339,-4.1338,-4.1338,-4.1338,-4.1338,-4.1338,-4.0393,-4.0502,-4.0526,-4.0661,-4.0705,-4.0802,-4.0844,-4.09,-4.0952,-4.1069,-4.114,-4.1175,-4.1236,-4.1327,-4.1405,-4.1419,-4.145,-4.147,-4.1483,-4.137,-4.1356,-4.1343,-4.1318,-4.1477,-4.1477,-4.1596,-4.1597,-4.1598]}]]